This demonstration page uses our WeatherBlox Daily Observations layout. Learn more.

Left ArrowRight Arrow

Hourly Observations for July 13, 2015

Temp ( °F °C ) Dew Point ( °F °C ) Humidity (%) Winds ( mph kmh ) Pressure ( in mb ) Visibility ( mi km ) Precip ( " mm )
12:15 am 00:15 Clear 72 22 70 21 94 94 SSW 7 11 29.97 1015 10 16 N/A
12:35 am 00:35 Clear 72 22 70 21 94 94 WNW 7 11 29.97 1015 10 16 N/A
12:55 am 00:55 Clear 72 22 70 21 94 94 W 6 9 29.97 1015 10 16 N/A
1:15 am 01:15 Clear 72 22 70 21 94 94 SSW 7 11 29.97 1015 10 16 N/A
1:35 am 01:35 Clear 72 22 70 21 94 94 W 6 9 29.97 1015 10 16 N/A
1:55 am 01:55 Partly Cloudy with Mist and Fog 72 22 70 21 94 94 SW 3 6 29.97 1015 3 5 N/A
2:15 am 02:15 Partly Cloudy 70 21 70 21 100 100 WNW 3 6 29.97 1015 10 16 N/A
2:35 am 02:35 Partly Cloudy 70 21 70 21 100 100 N N/A 29.94 1014 10 16 N/A
2:55 am 02:55 Partly Cloudy 70 21 70 21 100 100 WNW 7 11 29.94 1014 10 16 N/A
3:15 am 03:15 Partly Cloudy 70 21 70 21 100 100 WNW 6 9 29.94 1014 10 16 N/A
3:35 am 03:35 Mostly Cloudy 70 21 70 21 100 100 W 5 7 29.94 1014 10 16 N/A
3:55 am 03:55 Cloudy 72 22 70 21 94 94 N N/A 29.94 1014 10 16 N/A
4:15 am 04:15 Cloudy 72 22 70 21 94 94 SSW 6 9 29.94 1014 10 16 N/A
4:35 am 04:35 Mostly Cloudy 70 21 70 21 100 100 S 3 6 29.94 1014 10 16 N/A
4:55 am 04:55 Mostly Cloudy 70 21 70 21 100 100 N N/A 29.94 1014 7 11 N/A
5:15 am 05:15 Cloudy with Light Rain 70 21 70 21 100 100 SSW 3 6 29.91 1013 10 16 N/A
5:35 am 05:35 Cloudy with Light Rain 72 22 70 21 94 94 S 5 7 29.94 1014 10 16 N/A
5:55 am 05:55 Mostly Cloudy 70 21 70 21 100 100 SSW 6 9 29.94 1014 10 16 N/A
6:15 am 06:15 Mostly Cloudy 72 22 70 21 94 94 SW 3 6 29.94 1014 10 16 N/A
6:35 am 06:35 Cloudy with Nearby Thunderstorms 70 21 70 21 100 100 N N/A 29.94 1014 7 11 N/A
6:55 am 06:55 Mostly Cloudy 72 22 72 22 100 100 S 5 7 29.94 1014 7 11 N/A
7:15 am 07:15 Mostly Cloudy with Light Rain 72 22 72 22 100 100 N N/A 29.94 1014 7 11 N/A
7:35 am 07:35 Cloudy with Rain 70 21 70 21 100 100 W 3 6 29.94 1014 4 6 N/A
7:55 am 07:55 Cloudy with Rain 70 21 70 21 100 100 WSW 3 6 29.94 1014 4 6 N/A
8:15 am 08:15 Cloudy with Rain 70 21 70 21 100 100 N N/A 29.94 1014 4 6 N/A
8:35 am 08:35 Cloudy with Rain 70 21 70 21 100 100 N N/A 29.94 1014 3 4 N/A
8:55 am 08:55 Cloudy with Rain 70 21 70 21 100 100 N N/A 29.94 1014 3 5 N/A
9:15 am 09:15 Cloudy with Rain 70 21 70 21 100 100 N N/A 29.94 1014 4 6 N/A
9:35 am 09:35 Cloudy with Light Rain 70 21 70 21 100 100 WNW 5 7 29.91 1013 5 8 N/A
9:55 am 09:55 Cloudy with Light Rain 70 21 70 21 100 100 N N/A 29.94 1014 7 11 N/A
10:15 am 10:15 Cloudy 70 21 70 21 100 100 N N/A 29.94 1014 7 11 N/A
10:35 am 10:35 Cloudy 72 22 72 22 100 100 N N/A 29.94 1014 7 11 N/A
10:55 am 10:55 Cloudy 73 23 72 22 94 94 S 5 7 29.94 1014 7 11 N/A
11:15 am 11:15 Cloudy 73 23 72 22 94 94 S 6 9 29.94 1014 10 16 N/A
11:35 am 11:35 Cloudy 73 23 72 22 94 94 S 6 9 29.94 1014 10 16 N/A
11:55 am 11:55 Cloudy 73 23 72 22 94 94 S 6 9 29.94 1014 10 16 N/A
12:15 pm 12:15 Cloudy 75 24 72 22 89 89 S 12 19 29.94 1014 10 16 N/A
12:35 pm 12:35 Cloudy 77 25 72 22 83 83 S 9 15 29.91 1013 10 16 N/A
12:55 pm 12:55 Cloudy 77 25 72 22 83 83 S 12 19 29.91 1013 10 16 N/A
1:15 pm 13:15 Cloudy 79 26 72 22 79 79 S 10 17 29.91 1013 10 16 N/A
1:35 pm 13:35 Cloudy 77 25 70 21 79 79 S 12 19 29.91 1013 10 16 N/A
1:55 pm 13:55 Cloudy 77 25 70 21 79 79 S 10 17 29.88 1012 10 16 N/A
2:15 pm 14:15 Cloudy 75 24 72 22 89 89 S 7 11 29.91 1013 10 16 N/A
2:35 pm 14:35 Cloudy 77 25 70 21 79 79 S 7 11 29.88 1012 10 16 N/A
2:55 pm 14:55 Cloudy 77 25 72 22 83 83 S 10 17 29.88 1012 10 16 N/A
3:15 pm 15:15 Cloudy 77 25 72 22 83 83 S 8 13 29.88 1012 10 16 N/A
3:35 pm 15:35 Cloudy 77 25 70 21 79 79 SE 7 11 29.88 1012 10 16 N/A
3:55 pm 15:55 Cloudy 79 26 70 21 74 74 SSE 10 17 29.85 1011 10 16 N/A
4:15 pm 16:15 Mostly Cloudy 81 27 70 21 70 70 SSE 10 17 29.85 1011 10 16 N/A
4:35 pm 16:35 Mostly Cloudy 81 27 70 21 70 70 SSE 10 17 29.83 1010 10 16 N/A
4:55 pm 16:55 Cloudy 81 27 68 20 66 66 S 12 19 29.83 1010 10 16 N/A
5:15 pm 17:15 Cloudy 81 27 70 21 70 70 SSE 12 19 29.83 1010 10 16 N/A
5:35 pm 17:35 Cloudy 79 26 70 21 74 74 S 15 24 29.83 1010 10 16 N/A
5:55 pm 17:55 Cloudy 79 26 70 21 74 74 S 10 17 29.80 1009 10 16 N/A
6:15 pm 18:15 Cloudy 79 26 70 21 74 74 SSW 13 20 29.80 1009 10 16 N/A
6:35 pm 18:35 Cloudy 79 26 70 21 74 74 S 10 17 29.83 1010 10 16 N/A
7:35 pm 19:35 Cloudy 77 25 72 22 83 83 SW 5 7 29.83 1010 10 16 N/A
7:55 pm 19:55 Cloudy 77 25 72 22 83 83 SSW 10 17 29.83 1010 10 16 N/A
8:15 pm 20:15 Cloudy 77 25 72 22 83 83 SSW 12 19 29.83 1010 10 16 N/A
8:35 pm 20:35 Cloudy 77 25 72 22 83 83 SSW 9 15 29.83 1010 10 16 N/A
8:55 pm 20:55 Cloudy 75 24 72 22 89 89 S 7 11 29.80 1009 10 16 N/A
9:15 pm 21:15 Cloudy 77 25 72 22 83 83 S 7 11 29.80 1009 10 16 N/A
9:35 pm 21:35 Cloudy 77 25 72 22 83 83 S 8 13 29.80 1009 10 16 N/A
9:55 pm 21:55 Mostly Cloudy 75 24 72 22 89 89 S 6 9 29.77 1008 10 16 N/A
10:15 pm 22:15 Mostly Cloudy 75 24 72 22 89 89 SSW 7 11 29.80 1009 10 16 N/A
10:35 pm 22:35 Cloudy 73 23 72 22 94 94 S 6 9 29.77 1008 10 16 N/A
10:55 pm 22:55 Cloudy 72 22 72 22 100 100 N N/A 29.77 1008 10 16 N/A
11:15 pm 23:15 Mostly Cloudy 72 22 72 22 100 100 SW 6 9 29.77 1008 10 16 N/A
11:35 pm 23:35 Mostly Cloudy 72 22 72 22 100 100 SW 5 7 29.77 1008 10 16 N/A
11:55 pm 23:55 Cloudy 73 23 72 22 94 94 SSW 8 13 29.77 1008 10 16 N/A

Powered by AerisWeather